Time,TemperatureF,DewpointF,PressureIn,WindDirection,WindDirectionDegrees,WindSpeedMPH,WindSpeedGustMPH,Humidity,HourlyPrecipIn,Conditions,Clouds,dailyrainin,SoftwareType,DateUTC
2013-09-03 00:01:00,79.7,76.5,29.73,SSW,200,1.0,6.0,90,0.00,,CLR,0.00,VWS V14.01,2013-09-03 04:01:00,
2013-09-03 00:02:00,79.7,76.5,29.73,SSE,154,2.0,6.0,90,0.00,,CLR,0.00,VWS V14.01,2013-09-03 04:02:00,
2013-09-03 00:07:00,79.7,76.5,29.73,SSW,211,0.0,7.0,90,0.00,,CLR,0.00,VWS V14.01,2013-09-03 04:07:00,
2013-09-03 00:12:00,79.7,76.5,29.73,South,190,5.0,5.0,90,0.00,,CLR,0.00,VWS V14.01,2013-09-03 04:12:00,
2013-09-03 00:17:00,79.7,76.5,29.73,South,177,3.0,8.0,90,0.00,,CLR,0.00,VWS V14.01,2013-09-03 04:17:00,
2013-09-03 00:22:00,79.8,76.6,29.73,South,172,0.0,4.0,90,0.00,,CLR,0.00,VWS V14.01,2013-09-03 04:22:00,
2013-09-03 00:27:00,79.7,76.5,29.73,SSE,162,4.0,5.0,90,0.00,,CLR,0.00,VWS V14.01,2013-09-03 04:27:00,
2013-09-03 00:32:00,79.7,76.5,29.72,SSE,162,4.0,5.0,90,0.00,,CLR,0.00,VWS V14.01,2013-09-03 04:32:00,
2013-09-03 00:37:00,79.6,76.4,29.72,SSW,200,0.0,4.0,90,0.00,,CLR,0.00,VWS V14.01,2013-09-03 04:37:00,
2013-09-03 00:42:00,79.5,76.3,29.72,SSW,200,0.0,5.0,90,0.00,,CLR,0.00,VWS V14.01,2013-09-03 04:42:00,
2013-09-03 00:47:00,79.4,76.2,29.72,SW,219,0.0,4.0,90,0.00,,CLR,0.00,VWS V14.01,2013-09-03 04:47:00,
2013-09-03 00:53:00,79.4,75.9,29.72,SSW,201,0.0,4.0,89,0.00,,CLR,0.00,VWS V14.01,2013-09-03 04:53:00,
2013-09-03 00:58:00,79.4,75.9,29.71,SW,223,1.0,4.0,89,0.00,,CLR,0.00,VWS V14.01,2013-09-03 04:58:00,
2013-09-03 01:03:00,79.4,75.5,29.71,SW,216,0.0,4.0,88,0.00,,CLR,0.00,VWS V14.01,2013-09-03 05:03:00,
2013-09-03 01:08:00,79.4,75.5,29.71,SSW,209,0.0,3.0,88,0.00,,CLR,0.00,VWS V14.01,2013-09-03 05:08:00,
2013-09-03 01:13:00,79.5,75.6,29.71,SSE,155,0.0,3.0,88,0.00,,CLR,0.00,VWS V14.01,2013-09-03 05:13:00,
2013-09-03 01:18:00,79.6,75.4,29.71,South,190,3.0,5.0,87,0.00,,CLR,0.00,VWS V14.01,2013-09-03 05:18:00,
2013-09-03 01:23:00,79.6,75.4,29.71,SSW,213,0.0,2.0,87,0.00,,CLR,0.00,VWS V14.01,2013-09-03 05:23:00,
2013-09-03 01:28:00,79.6,75.4,29.71,SSW,211,0.0,3.0,87,0.00,,CLR,0.00,VWS V14.01,2013-09-03 05:28:00,
2013-09-03 01:33:00,79.7,75.5,29.71,South,191,2.0,2.0,87,0.00,,CLR,0.00,VWS V14.01,2013-09-03 05:33:00,
2013-09-03 01:38:00,79.7,75.5,29.70,South,169,0.0,5.0,87,0.00,,CLR,0.00,VWS V14.01,2013-09-03 05:38:00,
2013-09-03 01:43:00,79.8,75.9,29.70,South,169,3.0,7.0,88,0.00,,CLR,0.00,VWS V14.01,2013-09-03 05:43:00,
2013-09-03 01:48:00,79.9,76.4,29.70,SSE,168,0.0,3.0,89,0.00,,CLR,0.00,VWS V14.01,2013-09-03 05:48:00,
2013-09-03 01:53:00,79.7,76.2,29.70,South,172,1.0,5.0,89,0.00,,CLR,0.00,VWS V14.01,2013-09-03 05:53:00,
2013-09-03 01:58:00,79.6,76.1,29.70,SSE,155,0.0,5.0,89,0.00,,CLR,0.00,VWS V14.01,2013-09-03 05:58:00,
2013-09-03 02:03:00,79.6,76.1,29.70,South,174,0.0,3.0,89,0.00,,CLR,0.00,VWS V14.01,2013-09-03 06:03:00,
2013-09-03 02:08:00,79.5,76.0,29.70,SSE,165,5.0,9.0,89,0.00,,CLR,0.00,VWS V14.01,2013-09-03 06:08:00,
2013-09-03 02:13:00,79.5,76.0,29.69,SSE,165,1.0,7.0,89,0.00,,CLR,0.00,VWS V14.01,2013-09-03 06:13:00,
2013-09-03 02:18:00,79.4,75.5,29.69,South,188,0.0,6.0,88,0.00,,CLR,0.00,VWS V14.01,2013-09-03 06:18:00,
2013-09-03 02:23:00,79.4,75.9,29.69,South,191,0.0,5.0,89,0.00,,CLR,0.00,VWS V14.01,2013-09-03 06:23:00,
2013-09-03 02:28:00,79.3,75.8,29.69,SSE,167,1.0,6.0,89,0.00,,CLR,0.00,VWS V14.01,2013-09-03 06:28:00,
2013-09-03 02:33:00,79.2,75.7,29.70,SSE,160,1.0,6.0,89,0.00,,CLR,0.00,VWS V14.01,2013-09-03 06:33:00,
2013-09-03 02:38:00,79.2,75.7,29.70,SSE,166,2.0,3.0,89,0.00,,CLR,0.00,VWS V14.01,2013-09-03 06:38:00,
2013-09-03 02:43:00,79.2,75.7,29.70,SSW,208,0.0,1.0,89,0.00,,CLR,0.00,VWS V14.01,2013-09-03 06:43:00,
2013-09-03 02:48:00,79.1,75.6,29.70,SSE,167,0.0,4.0,89,0.00,,CLR,0.00,VWS V14.01,2013-09-03 06:48:00,
2013-09-03 02:53:00,78.9,75.4,29.71,SW,229,3.0,3.0,89,0.00,,CLR,0.00,VWS V14.01,2013-09-03 06:53:00,
2013-09-03 02:58:00,78.9,75.4,29.71,South,176,3.0,3.0,89,0.00,,CLR,0.00,VWS V14.01,2013-09-03 06:58:00,
2013-09-03 03:03:00,78.8,75.3,29.70,South,179,0.0,2.0,89,0.00,,CLR,0.00,VWS V14.01,2013-09-03 07:03:00,
2013-09-03 03:08:00,78.7,75.5,29.70,South,190,1.0,3.0,90,0.00,,CLR,0.00,VWS V14.01,2013-09-03 07:08:00,
2013-09-03 03:13:00,78.6,75.4,29.70,South,190,5.0,9.0,90,0.00,,CLR,0.00,VWS V14.01,2013-09-03 07:13:00,
2013-09-03 03:18:00,78.7,75.2,29.70,WSW,244,4.0,5.0,89,0.00,,CLR,0.00,VWS V14.01,2013-09-03 07:18:00,
2013-09-03 03:23:00,78.7,75.2,29.70,WSW,240,4.0,4.0,89,0.00,,CLR,0.00,VWS V14.01,2013-09-03 07:23:00,
2013-09-03 03:28:00,78.6,74.8,29.70,SW,224,2.0,3.0,88,0.00,,CLR,0.00,VWS V14.01,2013-09-03 07:28:00,
2013-09-03 03:33:00,78.5,74.7,29.70,WSW,239,4.0,6.0,88,0.00,,CLR,0.00,VWS V14.01,2013-09-03 07:33:00,
2013-09-03 03:38:00,78.4,74.2,29.70,WSW,237,1.0,4.0,87,0.00,,CLR,0.00,VWS V14.01,2013-09-03 07:38:00,
2013-09-03 03:43:00,78.4,74.2,29.70,SW,236,1.0,2.0,87,0.00,,CLR,0.00,VWS V14.01,2013-09-03 07:43:00,
2013-09-03 03:48:00,78.3,74.1,29.70,WSW,238,4.0,9.0,87,0.00,,CLR,0.00,VWS V14.01,2013-09-03 07:48:00,
2013-09-03 03:53:00,78.3,74.1,29.70,West,267,1.0,5.0,87,0.00,,CLR,0.00,VWS V14.01,2013-09-03 07:53:00,
2013-09-03 03:58:00,78.2,74.0,29.70,WSW,253,3.0,5.0,87,0.00,,CLR,0.00,VWS V14.01,2013-09-03 07:58:00,
2013-09-03 04:03:00,78.2,74.0,29.70,WSW,254,0.0,3.0,87,0.00,,CLR,0.00,VWS V14.01,2013-09-03 08:03:00,
2013-09-03 04:08:00,78.1,74.3,29.70,SW,235,4.0,7.0,88,0.00,,CLR,0.00,VWS V14.01,2013-09-03 08:08:00,
2013-09-03 04:13:00,78.0,74.2,29.70,WSW,254,4.0,10.0,88,0.00,,CLR,0.00,VWS V14.01,2013-09-03 08:13:00,
2013-09-03 04:18:00,77.9,74.1,29.70,WSW,252,2.0,6.0,88,0.00,,CLR,0.00,VWS V14.01,2013-09-03 08:18:00,
2013-09-03 04:23:00,77.8,74.0,29.69,WSW,256,4.0,4.0,88,0.00,,CLR,0.00,VWS V14.01,2013-09-03 08:23:00,
2013-09-03 04:28:00,77.8,74.3,29.70,West,266,0.0,3.0,89,0.00,,CLR,0.00,VWS V14.01,2013-09-03 08:28:00,
2013-09-03 04:33:00,77.7,74.2,29.70,WSW,244,4.0,6.0,89,0.00,,CLR,0.00,VWS V14.01,2013-09-03 08:33:00,
2013-09-03 04:38:00,77.7,74.2,29.70,West,259,3.0,6.0,89,0.00,,CLR,0.00,VWS V14.01,2013-09-03 08:38:00,
2013-09-03 04:43:00,77.6,74.1,29.70,WSW,254,2.0,4.0,89,0.00,,CLR,0.00,VWS V14.01,2013-09-03 08:43:00,
2013-09-03 04:48:00,77.6,74.1,29.70,West,271,3.0,4.0,89,0.00,,CLR,0.00,VWS V14.01,2013-09-03 08:48:00,
2013-09-03 04:53:00,77.5,74.0,29.70,West,272,2.0,4.0,89,0.00,,CLR,0.00,VWS V14.01,2013-09-03 08:53:00,
2013-09-03 04:59:00,77.4,73.9,29.70,West,263,5.0,5.0,89,0.00,,CLR,0.00,VWS V14.01,2013-09-03 08:59:00,
2013-09-03 05:04:00,77.3,74.1,29.70,West,260,4.0,6.0,90,0.00,,CLR,0.00,VWS V14.01,2013-09-03 09:04:00,
2013-09-03 05:09:00,77.2,74.0,29.71,West,261,8.0,8.0,90,0.00,,CLR,0.00,VWS V14.01,2013-09-03 09:09:00,
2013-09-03 05:14:00,77.2,74.0,29.71,West,267,4.0,4.0,90,0.00,,CLR,0.00,VWS V14.01,2013-09-03 09:14:00,
2013-09-03 05:19:00,77.1,73.9,29.71,West,265,6.0,6.0,90,0.00,,CLR,0.00,VWS V14.01,2013-09-03 09:19:00,
2013-09-03 05:24:00,77.0,73.8,29.71,WSW,238,5.0,7.0,90,0.00,,CLR,0.00,VWS V14.01,2013-09-03 09:24:00,
2013-09-03 05:29:00,77.0,73.8,29.71,WSW,241,5.0,8.0,90,0.00,,CLR,0.00,VWS V14.01,2013-09-03 09:29:00,
2013-09-03 05:34:00,76.9,74.1,29.72,West,272,5.0,6.0,91,0.00,,CLR,0.00,VWS V14.01,2013-09-03 09:34:00,
2013-09-03 05:39:00,76.9,74.1,29.72,West,280,4.0,8.0,91,0.00,,CLR,0.00,VWS V14.01,2013-09-03 09:39:00,
2013-09-03 05:44:00,76.9,74.1,29.72,West,261,4.0,9.0,91,0.00,,CLR,0.00,VWS V14.01,2013-09-03 09:44:00,
2013-09-03 05:49:00,76.8,74.0,29.72,West,262,4.0,7.0,91,0.00,,CLR,0.00,VWS V14.01,2013-09-03 09:49:00,
2013-09-03 05:54:00,76.6,73.8,29.72,West,279,4.0,10.0,91,0.00,,CLR,0.00,VWS V14.01,2013-09-03 09:54:00,
2013-09-03 05:59:00,76.5,73.7,29.72,WSW,254,6.0,10.0,91,0.00,,CLR,0.00,VWS V14.01,2013-09-03 09:59:00,
2013-09-03 06:04:00,76.5,73.7,29.72,West,272,5.0,9.0,91,0.00,,CLR,0.00,VWS V14.01,2013-09-03 10:04:00,
2013-09-03 06:09:00,76.5,73.7,29.73,WNW,298,6.0,10.0,91,0.00,,CLR,0.00,VWS V14.01,2013-09-03 10:09:00,
2013-09-03 06:14:00,76.4,73.2,29.73,NW,307,2.0,10.0,90,0.00,,CLR,0.00,VWS V14.01,2013-09-03 10:14:00,
2013-09-03 06:19:00,76.4,72.9,29.73,West,273,3.0,10.0,89,0.00,,CLR,0.00,VWS V14.01,2013-09-03 10:19:00,
2013-09-03 06:24:00,76.3,72.5,29.74,WSW,256,3.0,10.0,88,0.00,,CLR,0.00,VWS V14.01,2013-09-03 10:24:00,
2013-09-03 06:29:00,76.4,72.6,29.74,WNW,290,5.0,7.0,88,0.00,,CLR,0.00,VWS V14.01,2013-09-03 10:29:00,
2013-09-03 06:34:00,76.4,72.6,29.74,WNW,296,2.0,8.0,88,0.00,,CLR,0.00,VWS V14.01,2013-09-03 10:34:00,
2013-09-03 06:39:00,76.3,72.2,29.74,NW,321,6.0,12.0,87,0.00,,CLR,0.00,VWS V14.01,2013-09-03 10:39:00,
2013-09-03 06:44:00,76.3,72.2,29.74,WNW,286,2.0,9.0,87,0.00,,,0.00,VWS V14.01,2013-09-03 10:44:00,
2013-09-03 06:49:00,76.2,72.1,29.74,NNW,329,10.0,10.0,87,0.00,,,0.00,VWS V14.01,2013-09-03 10:49:00,
2013-09-03 06:54:00,76.3,72.2,29.74,West,278,4.0,6.0,87,0.00,,,0.00,VWS V14.01,2013-09-03 10:54:00,
2013-09-03 06:59:00,76.3,72.2,29.74,NNW,347,5.0,11.0,87,0.00,,,0.00,VWS V14.01,2013-09-03 10:59:00,
2013-09-03 07:04:00,76.4,72.2,29.75,NW,317,4.0,10.0,87,0.00,,,0.00,VWS V14.01,2013-09-03 11:04:00,
2013-09-03 07:09:00,76.5,72.3,29.75,North,354,7.0,8.0,87,0.00,,,0.00,VWS V14.01,2013-09-03 11:09:00,
2013-09-03 07:14:00,76.6,72.4,29.75,NNW,335,9.0,12.0,87,0.00,,,0.00,VWS V14.01,2013-09-03 11:14:00,
2013-09-03 07:19:00,76.7,72.5,29.75,NW,325,5.0,13.0,87,0.00,,,0.00,VWS V14.01,2013-09-03 11:19:00,
2013-09-03 07:24:00,76.7,72.5,29.75,NW,307,7.0,12.0,87,0.00,,,0.00,VWS V14.01,2013-09-03 11:24:00,
2013-09-03 07:29:00,76.6,72.4,29.75,NNW,344,11.0,11.0,87,0.00,,,0.00,VWS V14.01,2013-09-03 11:29:00,
2013-09-03 07:34:00,76.6,72.8,29.75,NNW,342,9.0,9.0,88,0.00,,,0.00,VWS V14.01,2013-09-03 11:34:00,
2013-09-03 07:40:00,76.6,72.8,29.75,NNW,329,6.0,9.0,88,0.00,,,0.00,VWS V14.01,2013-09-03 11:40:00,
2013-09-03 07:45:00,76.8,73.3,29.75,NNW,348,7.0,12.0,89,0.00,,,0.00,VWS V14.01,2013-09-03 11:45:00,
2013-09-03 07:50:00,77.1,73.6,29.76,NNW,340,7.0,12.0,89,0.00,,,0.00,VWS V14.01,2013-09-03 11:50:00,
2013-09-03 07:55:00,77.2,73.4,29.76,NNW,328,9.0,11.0,88,0.00,,,0.00,VWS V14.01,2013-09-03 11:55:00,
2013-09-03 08:00:00,77.2,73.4,29.76,NNW,344,6.0,11.0,88,0.00,,,0.00,VWS V14.01,2013-09-03 12:00:00,
2013-09-03 08:05:00,77.4,73.9,29.77,NNW,346,9.0,14.0,89,0.00,,,0.00,VWS V14.01,2013-09-03 12:05:00,
2013-09-03 08:10:00,77.6,73.8,29.77,NNW,346,9.0,14.0,88,0.00,,,0.00,VWS V14.01,2013-09-03 12:10:00,
2013-09-03 08:15:00,77.7,73.9,29.77,NNW,339,16.0,16.0,88,0.00,,,0.00,VWS V14.01,2013-09-03 12:15:00,
2013-09-03 08:20:00,77.6,73.1,29.77,NNW,339,11.0,16.0,86,0.00,,,0.00,VWS V14.01,2013-09-03 12:20:00,
2013-09-03 08:25:00,77.5,73.0,29.77,NW,317,15.0,17.0,86,0.00,,,0.00,VWS V14.01,2013-09-03 12:25:00,
2013-09-03 08:30:00,77.5,73.0,29.77,NNW,340,12.0,13.0,86,0.00,,,0.00,VWS V14.01,2013-09-03 12:30:00,
2013-09-03 08:35:00,77.5,73.0,29.77,NNW,348,14.0,14.0,86,0.00,,,0.00,VWS V14.01,2013-09-03 12:35:00,
2013-09-03 08:40:00,77.6,73.1,29.78,NNW,348,12.0,16.0,86,0.00,,,0.00,VWS V14.01,2013-09-03 12:40:00,
2013-09-03 08:45:00,77.9,73.0,29.78,NNW,339,11.0,14.0,85,0.00,,,0.00,VWS V14.01,2013-09-03 12:45:00,
2013-09-03 08:50:00,78.2,73.0,29.78,North,350,13.0,13.0,84,0.00,,SCT250,0.00,VWS V14.01,2013-09-03 12:50:00,
2013-09-03 08:55:00,78.3,72.7,29.78,North,349,13.0,14.0,83,0.00,,SCT250,0.00,VWS V14.01,2013-09-03 12:55:00,
2013-09-03 09:00:00,78.2,72.3,29.78,North,355,9.0,13.0,82,0.00,,SCT250,0.00,VWS V14.01,2013-09-03 13:00:00,
2013-09-03 09:05:00,78.1,71.4,29.78,North,355,10.0,12.0,80,0.00,,SCT250,0.00,VWS V14.01,2013-09-03 13:05:00,
2013-09-03 09:10:00,78.1,71.8,29.78,North,356,12.0,14.0,81,0.00,,SCT250,0.00,VWS V14.01,2013-09-03 13:10:00,
2013-09-03 09:15:00,78.1,71.8,29.79,North,7,10.0,13.0,81,0.00,,SCT250,0.00,VWS V14.01,2013-09-03 13:15:00,
2013-09-03 09:20:00,78.0,72.4,29.79,North,350,11.0,12.0,83,0.00,,SCT250,0.00,VWS V14.01,2013-09-03 13:20:00,
2013-09-03 09:25:00,78.0,72.1,29.79,North,350,7.0,13.0,82,0.00,,SCT250,0.00,VWS V14.01,2013-09-03 13:25:00,
2013-09-03 09:30:00,78.2,72.6,29.79,North,3,10.0,13.0,83,0.00,,SCT250,0.00,VWS V14.01,2013-09-03 13:30:00,
2013-09-03 09:35:00,78.4,72.4,29.79,NNW,341,9.0,12.0,82,0.00,,SCT250,0.00,VWS V14.01,2013-09-03 13:35:00,
2013-09-03 09:40:00,78.5,72.2,29.80,NNW,345,11.0,15.0,81,0.00,,BKN120,0.00,VWS V14.01,2013-09-03 13:40:00,
2013-09-03 09:45:00,78.7,72.4,29.80,North,352,13.0,15.0,81,0.00,,BKN120,0.00,VWS V14.01,2013-09-03 13:45:00,
2013-09-03 09:50:00,78.8,72.5,29.80,NNW,341,14.0,14.0,81,0.00,,BKN120,0.00,VWS V14.01,2013-09-03 13:50:00,
2013-09-03 09:55:00,78.9,72.2,29.80,NNW,340,9.0,14.0,80,0.00,,BKN120,0.00,VWS V14.01,2013-09-03 13:55:00,
2013-09-03 10:00:00,78.9,72.2,29.80,North,354,11.0,15.0,80,0.00,,BKN120,0.00,VWS V14.01,2013-09-03 14:00:00,
2013-09-03 10:05:00,79.0,72.3,29.81,North,2,13.0,14.0,80,0.00,,BKN120,0.00,VWS V14.01,2013-09-03 14:05:00,
2013-09-03 10:10:00,79.1,72.4,29.80,NNW,340,11.0,11.0,80,0.00,,BKN120,0.00,VWS V14.01,2013-09-03 14:10:00,
2013-09-03 10:15:00,79.2,71.8,29.80,North,359,9.0,11.0,78,0.00,,BKN120,0.00,VWS V14.01,2013-09-03 14:15:00,
2013-09-03 10:20:00,78.9,71.5,29.80,NNW,342,7.0,11.0,78,0.00,,BKN120,0.00,VWS V14.01,2013-09-03 14:20:00,
2013-09-03 10:25:00,78.7,71.6,29.80,North,352,14.0,14.0,79,0.00,,BKN120,0.00,VWS V14.01,2013-09-03 14:25:00,
2013-09-03 10:31:00,78.8,71.0,29.80,NNW,344,11.0,13.0,77,0.00,,BKN120,0.00,VWS V14.01,2013-09-03 14:31:00,
2013-09-03 21:01:00,79.3,63.7,29.85,NNW,334,8.0,8.0,59,0.00,,BKN120,0.00,VWS V14.01,2013-09-04 01:01:00,
2013-09-03 21:06:00,79.1,63.1,29.85,NNW,346,9.0,15.0,58,0.00,,SCT250,0.00,VWS V14.01,2013-09-04 01:06:00,
2013-09-03 21:11:00,79.1,64.5,29.85,NNW,342,9.0,11.0,61,0.00,,SCT250,0.00,VWS V14.01,2013-09-04 01:11:00,
2013-09-03 21:16:00,78.9,65.7,29.86,NNW,338,7.0,12.0,64,0.00,,SCT250,0.00,VWS V14.01,2013-09-04 01:16:00,
2013-09-03 21:21:00,78.8,65.2,29.86,NNW,328,4.0,12.0,63,0.00,,SCT250,0.00,VWS V14.01,2013-09-04 01:21:00,
2013-09-03 21:26:00,78.8,65.2,29.86,NNW,348,10.0,10.0,63,0.00,,SCT250,0.00,VWS V14.01,2013-09-04 01:26:00,
2013-09-03 21:31:00,78.7,64.6,29.86,NW,312,2.0,5.0,62,0.00,,SCT250,0.00,VWS V14.01,2013-09-04 01:31:00,
2013-09-03 21:36:00,78.5,64.9,29.87,NNW,331,5.0,11.0,63,0.00,,SCT250,0.00,VWS V14.01,2013-09-04 01:36:00,
2013-09-03 21:41:00,78.5,64.9,29.87,NNW,338,10.0,10.0,63,0.00,,SKC,0.00,VWS V14.01,2013-09-04 01:41:00,
2013-09-03 21:46:00,78.5,63.0,29.87,NW,323,10.0,15.0,59,0.00,,SKC,0.00,VWS V14.01,2013-09-04 01:46:00,
2013-09-03 21:51:00,78.6,63.6,29.87,NNW,348,14.0,19.0,60,0.00,,SKC,0.00,VWS V14.01,2013-09-04 01:51:00,
2013-09-03 21:56:00,78.6,64.0,29.87,NNW,328,17.0,17.0,61,0.00,,SKC,0.00,VWS V14.01,2013-09-04 01:56:00,
2013-09-03 22:01:00,78.5,63.5,29.88,North,355,18.0,18.0,60,0.00,,SKC,0.00,VWS V14.01,2013-09-04 02:01:00,
2013-09-03 22:06:00,78.4,64.3,29.88,NNW,346,13.0,15.0,62,0.00,,SKC,0.00,VWS V14.01,2013-09-04 02:06:00,
2013-09-03 22:11:00,78.3,62.8,29.88,NNW,342,14.0,15.0,59,0.00,,SKC,0.00,VWS V14.01,2013-09-04 02:11:00,
2013-09-03 22:16:00,78.2,65.0,29.88,NNW,335,11.0,15.0,64,0.00,,SKC,0.00,VWS V14.01,2013-09-04 02:16:00,
2013-09-03 22:21:00,77.9,63.4,29.88,NW,317,4.0,16.0,61,0.00,,SKC,0.00,VWS V14.01,2013-09-04 02:21:00,
2013-09-03 22:26:00,77.8,63.8,29.88,NW,321,7.0,13.0,62,0.00,,SKC,0.00,VWS V14.01,2013-09-04 02:26:00,
2013-09-03 22:31:00,77.7,64.6,29.89,NNW,346,13.0,15.0,64,0.00,,SKC,0.00,VWS V14.01,2013-09-04 02:31:00,
2013-09-03 22:36:00,77.7,64.1,29.89,North,349,13.0,21.0,63,0.00,,SKC,0.00,VWS V14.01,2013-09-04 02:36:00,
2013-09-03 22:41:00,77.6,65.3,29.89,North,5,14.0,16.0,66,0.00,,SKC,0.00,VWS V14.01,2013-09-04 02:41:00,
2013-09-03 22:46:00,77.4,64.3,29.89,North,356,13.0,16.0,64,0.00,,SKC,0.00,VWS V14.01,2013-09-04 02:46:00,
2013-09-03 22:51:00,77.2,65.8,29.89,North,1,13.0,14.0,68,0.00,,SKC,0.00,VWS V14.01,2013-09-04 02:51:00,
2013-09-03 22:56:00,77.1,65.7,29.89,NNE,13,12.0,16.0,68,0.00,,SKC,0.00,VWS V14.01,2013-09-04 02:56:00,
2013-09-03 23:01:00,76.9,66.0,29.90,North,5,15.0,16.0,69,0.00,,SKC,0.00,VWS V14.01,2013-09-04 03:01:00,
2013-09-03 23:06:00,76.6,65.7,29.90,NNE,13,13.0,15.0,69,0.00,,SKC,0.00,VWS V14.01,2013-09-04 03:06:00,
2013-09-03 23:11:00,76.4,66.3,29.90,NNE,17,14.0,15.0,71,0.00,,SKC,0.00,VWS V14.01,2013-09-04 03:11:00,
2013-09-03 23:16:00,76.2,65.7,29.90,NNE,19,13.0,16.0,70,0.00,,SKC,0.00,VWS V14.01,2013-09-04 03:16:00,
2013-09-03 23:21:00,76.0,66.3,29.90,North,9,14.0,14.0,72,0.00,,SKC,0.00,VWS V14.01,2013-09-04 03:21:00,
2013-09-03 23:26:00,75.7,65.6,29.90,North,8,9.0,14.0,71,0.00,,SKC,0.00,VWS V14.01,2013-09-04 03:26:00,
2013-09-03 23:31:00,75.5,65.0,29.90,North,5,12.0,16.0,70,0.00,,SKC,0.00,VWS V14.01,2013-09-04 03:31:00,
2013-09-03 23:36:00,75.3,64.8,29.90,North,355,10.0,14.0,70,0.00,,SKC,0.00,VWS V14.01,2013-09-04 03:36:00,
2013-09-03 23:41:00,75.0,65.0,29.90,NNW,346,12.0,13.0,71,0.00,,CLR,0.00,VWS V14.01,2013-09-04 03:41:00,
2013-09-03 23:46:00,74.7,64.3,29.91,North,1,11.0,14.0,70,0.00,,CLR,0.00,VWS V14.01,2013-09-04 03:46:00,
2013-09-03 23:51:00,74.5,65.3,29.91,NNE,18,11.0,17.0,73,0.00,,CLR,0.00,VWS V14.01,2013-09-04 03:51:00,
2013-09-03 23:56:00,74.4,63.6,29.91,North,1,15.0,16.0,69,0.00,,CLR,0.00,VWS V14.01,2013-09-04 03:56:00,